Zurück zum Katalog

GORIZONT 21

AktivKommunikationGEO
NORAD 20923·PAYLOAD·🇷🇺 Russia

Gestartet Nov 3, 1990 von Baikonur Cosmodrome

Loading…

TLE

AktuellSource: Space-Track

Epoche: Sep 13, 2026, 17:38 UTC

1 20923U 90094A   26256.73488120 -.00000095  00000-0  00000-0 0  9997
2 20923  12.6533 336.1428 0007101 268.4193  88.5169  1.00149186131335

Verfolge GORIZONT 21 in Echtzeit mit AllMySat

Download on the App Store